Weather History for KCDC - August, 2013

Change the Weather History Date:

Saturday, August 17, 2013

  Actual Average Record
Temperature  
Mean Temperature 78 °F 71 °F  
Max Temperature 92 °F 87 °F 97 °F (2002)
Min Temperature 63 °F 55 °F 40 °F (1960)
Degree Days  
Heating Degree Days 0 0  
Month to date heating degree days 0 0  
Since 1 June heating degree days 11 79  
Since 1 July heating degree days 0 3  
Cooling Degree Days 13 6  
Month to date cooling degree days 116 126  
Year to date cooling degree days 570 479  
Since 1 June cooling degree days 568 471  
Growing Degree Days 26 (Base 50)    
Moisture  
Dew Point 47 °F    
Average Humidity 39    
Maximum Humidity 56    
Minimum Humidity 21    
Precipitation  
Precipitation 0.04 in 0.04 in 0.42 in (1983)
Month to date precipitation 0.07 0.67  
Year to date precipitation 9.39 7.08  
Sea Level Pressure  
Sea Level Pressure 30.01 in    
Wind  
Wind Speed 5 mph (South)    
Max Wind Speed 22 mph    
Max Gust Speed 26 mph    
Visibility 10 miles    
Events Rain , Thunderstorm    
T = Trace of Precipitation, MM = Missing Value Source: NWS Daily Summary

Daily Weather History Graph

Daily Weather History Graph

Search for Another Location

Airport or City:

Trip Planner

Search our weather history database for the weather conditions in past years. The results will help you decide how hot, cold, wet, or windy it might be!

Date:

Astronomy

Aug. 17, 2013 Rise Set
Actual Time 6:50 AM MDT 8:22 PM MDT
Civil Twilight 6:22 AM MDT 8:49 PM MDT
Nautical Twilight 5:48 AM MDT 9:23 PM MDT
Astronomical Twilight 5:13 AM MDT 9:58 PM MDT
Moon 5:39 PM MDT (8/17) 2:59 AM MDT (8/17)
Length of Visible Light 14h 27m
Length of Day
13h 32m
Waxing Gibbous, 85% of the Moon is Illuminated
Aug 17
Waxing Gibbous
Aug 20
Full
Aug 28
Last Quarter
Sep 5
New
Sep 12
First Quarter

Hourly Weather History & Observations

Time (MDT) Temp. Heat Index Dew Point Humidity Pressure Visibility Wind Dir Wind Speed Gust Speed Precip Events Conditions
12:53 AM 73.9 °F - 43.0 °F 33% 29.95 in 10.0 mi SSE 5.8 mph - N/A   Clear
1:53 AM 73.0 °F - 44.1 °F 35% 29.93 in 10.0 mi WNW 3.5 mph - N/A   Clear
2:53 AM 73.0 °F - 45.0 °F 37% 29.92 in 10.0 mi Calm Calm - N/A   Clear
3:53 AM 73.0 °F - 46.0 °F 38% 29.93 in 10.0 mi SE 4.6 mph - N/A   Partly Cloudy
4:53 AM 71.1 °F - 46.9 °F 42% 29.93 in 10.0 mi SE 4.6 mph - N/A   Clear
5:53 AM 71.1 °F - 46.0 °F 41% 29.93 in 10.0 mi Calm Calm - N/A   Clear
6:53 AM 64.0 °F - 48.0 °F 56% 29.98 in 10.0 mi Calm Calm - N/A   Clear
7:53 AM 69.1 °F - 50.0 °F 51% 29.98 in 10.0 mi Calm Calm - N/A   Clear
8:53 AM 78.1 °F - 46.9 °F 33% 29.98 in 10.0 mi Calm Calm - N/A   Clear
9:53 AM 82.9 °F - 46.9 °F 28% 29.96 in 10.0 mi WSW 8.1 mph - N/A   Clear
10:53 AM 86.0 °F - 43.0 °F 22% 29.96 in 10.0 mi South 8.1 mph - N/A   Clear
11:53 AM 88.0 °F - 42.1 °F 20% 29.94 in 10.0 mi SSW 10.4 mph 17.3 mph N/A   Clear
12:10 PM 89.6 °F - 42.8 °F 20% 30.21 in 10.0 mi South 9.2 mph 19.6 mph N/A Thunderstorm Thunderstorm
12:53 PM 84.0 °F - 46.0 °F 26% 29.93 in 10.0 mi West 17.3 mph 24.2 mph 0.00 in Rain , Thunderstorm Light Thunderstorms and Rain
1:09 PM 84.2 °F - 46.4 °F 27% 30.19 in 10.0 mi NNW 10.4 mph 21.9 mph 0.00 in Thunderstorm Thunderstorm
1:41 PM 82.4 °F - 50.0 °F 32% 30.18 in 10.0 mi SW 6.9 mph - 0.00 in Rain Light Rain
1:53 PM 87.1 °F - 41.0 °F 20% 29.90 in 10.0 mi Calm Calm - 0.00 in Rain Light Rain
2:12 PM 86.0 °F - 46.4 °F 25% 30.16 in 10.0 mi Variable 5.8 mph - 0.00 in Thunderstorm Thunderstorm
2:27 PM 84.2 °F - 44.6 °F 25% 30.16 in 10.0 mi SW 13.8 mph 23.0 mph 0.00 in   Mostly Cloudy
2:36 PM 84.2 °F - 42.8 °F 23% 30.16 in 10.0 mi SSW 10.4 mph 25.3 mph 0.00 in Thunderstorm Thunderstorm
2:53 PM 82.0 °F - 51.1 °F 34% 29.90 in 9.0 mi WSW 13.8 mph 19.6 mph 0.01 in Rain Light Rain
3:28 PM 84.2 °F - 42.8 °F 23% 30.13 in 10.0 mi SSW 6.9 mph - 0.00 in Thunderstorm Partly Cloudy
3:53 PM 80.1 °F 79.9 °F 53.1 °F 39% 29.86 in 10.0 mi NE 8.1 mph - 0.03 in Thunderstorm Thunderstorm
4:30 PM 87.8 °F - 46.4 °F 24% 30.11 in 10.0 mi South 18.4 mph - 0.00 in   Partly Cloudy
4:53 PM 84.0 °F - 45.0 °F 25% 29.85 in 10.0 mi South 15.0 mph 21.9 mph 0.00 in   Partly Cloudy
5:01 PM 84.2 °F - 46.4 °F 27% 30.12 in 10.0 mi South 18.4 mph 26.5 mph 0.01 in Rain , Thunderstorm Light Thunderstorms and Rain
5:16 PM 82.4 °F - 51.8 °F 35% 30.11 in 10.0 mi South 12.7 mph 23.0 mph 0.02 in   Scattered Clouds
5:38 PM 84.2 °F - 51.8 °F 33% 30.11 in 10.0 mi SSW 17.3 mph 24.2 mph 0.02 in Thunderstorm Thunderstorm
5:53 PM 80.1 °F - 50.0 °F 35% 29.87 in 10.0 mi South 13.8 mph 26.5 mph 0.02 in Rain , Thunderstorm Light Thunderstorms and Rain
6:06 PM 80.6 °F - 48.2 °F 32% 30.12 in 10.0 mi South 13.8 mph - 0.00 in   Mostly Cloudy
6:15 PM 80.6 °F - 51.8 °F 37% 30.12 in 10.0 mi SSE 12.7 mph - 0.00 in Rain , Thunderstorm Light Rain
6:34 PM 84.2 °F - 48.2 °F 29% 30.12 in 10.0 mi South 12.7 mph 20.7 mph 0.00 in Thunderstorm Overcast
6:53 PM 82.9 °F - 46.0 °F 27% 29.88 in 10.0 mi South 11.5 mph 25.3 mph 0.00 in   Overcast
7:53 PM 79.0 °F - 45.0 °F 30% 29.88 in 10.0 mi SE 21.9 mph 29.9 mph N/A   Clear
8:53 PM 77.0 °F - 45.0 °F 32% 29.87 in 10.0 mi SE 27.6 mph 38.0 mph N/A   Clear
9:36 PM 73.4 °F - 46.4 °F 38% 30.23 in 10.0 mi North 10.4 mph 32.2 mph N/A   Mostly Cloudy
9:53 PM 70.0 °F - 48.0 °F 46% 29.97 in 10.0 mi NE 19.6 mph 31.1 mph N/A   Mostly Cloudy
10:53 PM 68.0 °F - 48.9 °F 50% 29.99 in 10.0 mi NE 9.2 mph - N/A   Clear
11:53 PM 66.9 °F - 48.9 °F 52% 30.00 in 10.0 mi WSW 4.6 mph - N/A   Mostly Cloudy